Theta_e
325 325 325 325 325 326 327 326 325 326 325 325 325 324 324 325 325 324 324 324 325 324 325 325 325 325 326 326 327 326 323 312 310 308 301 302 311 333 333 336 337 335 324 303 301 301 300 299 302 299 303 299 301 303 303 301 298 300 294 289 290 287 288 290 291 290 293 292 294 291 292 296 294 294 298 296 296 294 295 298 297 302 308 309 312 313 314 314
325 325 325 325 325 325 326 325 325 325 325 324 324 324 324 324 324 324 323 323 324 324 324 324 325 325 326 326 326 325 315 310 306 304 304 315 328 336 338 337 337 331 315 304 302 297 298 298 298 300 299 299 301 302 302 301 299 293 288 290 292 287 291 292 290 291 292 296 292 291 290 294 295 294 296 296 294 292 298 297 295 299 301 307 313 312 314 319
325 324 325 325 324 325 325 325 325 324 324 324 324 323 324 323 323 322 322 323 323 323 323 324 325 325 325 326 326 321 308 303 300 299 304 328 337 337 337 335 337 329 305 303 300 298 300 299 298 299 295 296 296 299 298 301 298 293 293 291 287 291 292 290 289 292 291 291 291 292 291 292 294 294 295 297 293 293 295 294 296 296 299 302 309 312 317 320
324 324 325 325 324 325 324 324 324 324 324 323 323 323 323 323 322 322 322 322 323 323 323 323 324 324 323 324 326 310 304 298 293 297 298 330 338 337 335 336 334 320 300 298 297 297 296 297 295 298 295 294 293 297 299 299 299 295 293 289 293 289 295 293 289 291 289 291 292 291 290 293 293 292 295 292 295 294 293 292 299 298 298 300 309 313 318 320
324 325 324 324 324 324 323 323 323 323 323 323 323 322 322 322 321 321 321 321 322 322 322 323 323 324 324 324 322 306 299 290 294 295 306 333 337 336 336 337 328 307 302 297 299 296 298 297 296 293 294 294 294 296 294 295 295 294 293 291 291 289 294 292 288 289 288 288 290 289 294 294 292 293 291 293 294 293 294 298 295 298 299 303 310 313 318 320
324 324 324 324 322 323 323 322 323 323 323 322 322 322 320 321 320 320 321 321 321 321 322 323 323 323 324 323 309 305 296 286 298 306 323 333 335 336 335 333 324 301 300 300 298 296 300 300 300 298 293 293 295 295 294 292 294 296 292 288 289 290 293 291 290 289 288 290 290 290 294 292 293 293 288 292 295 294 293 294 293 294 296 307 313 315 318 319
323 323 323 322 322 322 322 322 323 323 322 322 321 320 320 319 319 320 320 320 321 321 322 322 323 323 323 318 307 303 295 295 300 309 327 332 335 335 331 326 316 300 301 300 298 299 296 295 297 293 288 289 292 291 293 293 291 290 293 289 291 288 292 288 291 287 286 290 290 291 291 293 291 294 290 290 295 293 292 290 291 290 309 313 313 314 318 319
322 322 321 321 321 322 322 322 322 322 321 321 320 319 319 319 319 319 320 320 320 321 321 322 322 323 320 306 301 298 297 295 302 307 325 333 326 322 312 302 301 301 301 300 298 296 295 296 297 292 290 294 292 292 293 294 293 292 292 290 289 288 291 288 286 286 286 288 289 289 293 293 289 292 290 292 294 294 292 298 300 306 309 310 312 314 317 318
321 321 321 321 321 321 321 321 321 321 321 320 319 319 319 319 319 319 319 320 320 320 321 322 322 322 320 300 296 294 294 301 306 311 311 316 312 307 306 306 301 301 298 297 298 297 298 293 293 294 294 290 292 292 291 293 292 290 292 289 289 291 289 289 288 287 288 290 289 292 291 290 289 290 292 295 292 290 289 298 302 305 307 308 311 314 316 317
321 321 321 320 320 320 320 320 321 320 320 319 318 319 319 319 318 318 319 319 319 320 321 321 322 320 307 297 295 290 298 306 311 306 305 308 307 306 304 303 300 299 300 298 296 296 298 294 296 295 293 291 292 293 289 294 291 289 289 290 291 290 290 290 291 289 288 291 288 293 290 291 291 291 291 291 291 287 296 299 300 303 305 307 309 312 314 315
321 321 321 320 320 320 321 321 320 319 319 318 318 319 319 318 318 318 318 319 319 320 321 321 321 314 305 296 293 290 305 309 309 304 304 306 305 304 305 302 299 300 299 298 297 297 297 296 294 295 298 294 292 290 291 293 290 290 290 290 289 287 290 289 289 289 290 293 288 291 290 290 291 291 292 292 291 289 294 296 300 299 302 306 307 309 311 312
320 321 320 320 319 320 320 320 320 319 318 319 318 318 318 317 318 317 318 318 319 320 321 321 320 305 296 294 291 295 301 309 307 305 303 304 303 304 304 302 300 301 300 298 298 299 295 296 296 294 293 295 292 290 293 291 291 290 292 290 289 286 293 289 292 290 289 293 290 289 292 290 291 291 291 288 288 290 292 294 292 298 300 299 302 305 307 311
320 320 320 319 319 320 320 319 319 318 318 318 318 317 317 317 317 317 317 318 319 320 320 320 313 306 300 294 295 300 305 306 306 305 305 304 303 302 303 303 301 298 299 300 298 300 295 296 297 296 295 292 289 290 292 291 288 290 289 287 288 287 287 290 288 289 291 292 289 289 288 285 284 289 290 290 287 289 292 291 291 292 293 294 294 301 306 307
319 319 319 319 319 319 319 319 318 318 318 317 317 317 317 317 317 317 318 317 319 320 321 318 311 306 296 292 299 306 306 307 305 306 305 306 304 305 302 302 302 300 303 301 300 297 297 295 296 294 295 294 293 297 293 288 288 291 288 286 284 286 285 288 289 289 292 290 288 290 287 285 283 282 290 286 287 291 292 292 290 288 289 290 292 294 299 304
319 318 318 318 319 318 318 318 317 317 317 317 317 316 316 316 317 317 317 317 319 320 320 314 304 298 293 293 301 307 319 306 305 305 304 304 302 303 302 303 302 302 302 303 302 299 297 299 299 294 294 293 295 292 287 284 284 283 288 286 283 284 285 285 288 287 291 292 288 289 286 288 290 289 286 285 287 289 292 291 291 289 290 289 289 291 293 296
318 318 318 318 318 318 317 317 317 316 316 316 316 316 317 317 316 317 318 318 319 321 314 306 305 294 291 290 302 317 306 302 303 305 304 304 303 303 301 300 301 300 301 300 299 298 297 299 295 292 293 293 291 288 286 287 283 282 286 281 285 283 282 285 291 286 289 291 290 289 287 283 290 290 287 287 287 288 290 288 288 288 289 290 291 291 292 294
318 318 318 318 318 317 317 316 316 316 315 315 316 317 317 317 316 318 318 318 315 314 309 302 302 299 291 298 305 302 300 302 304 305 304 304 304 301 301 300 300 298 299 299 299 299 296 295 292 292 290 290 286 289 286 282 281 287 282 283 281 283 283 284 286 288 289 290 290 289 288 285 288 288 286 287 290 290 290 291 290 290 291 292 291 291 291 292
318 318 317 317 317 317 316 316 315 315 315 315 315 316 313 317 319 319 314 310 310 310 308 305 301 294 292 299 294 297 301 301 305 303 303 303 300 301 299 298 298 297 298 298 297 296 295 293 291 290 288 288 289 287 286 282 286 284 284 283 285 282 281 282 285 288 289 288 289 287 287 290 292 292 293 292 289 290 291 293 293 293 293 293 293 292 293 293
318 317 317 317 317 316 316 315 314 315 315 315 317 317 318 319 309 304 304 301 294 292 292 295 291 285 286 291 298 301 303 304 303 303 303 304 302 300 300 298 298 299 294 291 293 294 292 292 292 289 287 285 288 289 287 285 285 286 286 285 282 284 284 283 282 283 288 288 288 286 289 289 290 291 293 293 289 289 291 289 290 291 292 292 292 293 293 294
318 317 317 317 316 316 315 314 314 314 315 313 312 310 298 294 295 296 299 299 292 291 291 296 292 291 295 296 299 303 304 303 302 300 304 304 301 301 298 297 297 294 293 292 292 293 290 288 287 286 289 289 289 287 287 285 287 286 283 281 282 282 282 282 283 286 285 288 287 286 286 286 289 291 293 294 292 290 290 291 292 292 292 293 293 293 293 293
318 317 317 316 316 316 315 314 314 314 315 310 311 296 288 291 287 286 293 296 296 293 293 296 293 296 296 299 300 299 300 297 299 301 304 306 303 300 295 295 293 291 289 289 292 292 292 287 287 287 288 289 287 285 286 286 285 287 283 284 282 283 284 286 288 287 286 289 285 281 284 288 289 291 291 292 289 291 293 292 292 293 293 293 293 293 294 294
317 317 317 316 316 315 315 315 314 315 314 310 307 292 289 290 294 295 295 289 292 295 295 296 298 299 301 300 301 299 297 296 299 301 305 303 300 296 292 292 289 291 290 290 291 290 288 287 288 288 286 285 284 285 285 286 284 282 284 282 283 283 282 284 285 286 286 288 284 282 286 289 291 292 292 291 292 293 291 291 293 293 293 293 293 293 293 293
317 317 316 316 315 315 314 315 314 315 309 307 303 298 295 299 300 298 294 290 290 295 296 296 296 297 298 300 302 300 295 292 294 298 302 302 297 295 293 291 289 288 289 290 289 286 285 286 288 286 287 288 284 284 286 285 283 282 282 284 282 282 286 285 286 287 285 286 287 285 285 289 289 287 288 289 290 290 289 289 290 290 292 293 294 293 293 293
317 316 316 315 315 314 315 314 315 310 307 307 302 298 299 300 298 299 291 288 289 294 297 296 297 296 296 299 302 297 293 293 295 297 301 300 296 295 294 289 288 289 289 287 289 289 286 286 286 286 287 289 286 285 287 285 285 283 283 282 282 284 284 283 285 284 283 284 283 284 285 286 282 283 283 286 283 284 285 284 285 287 289 291 291 290 292 292
317 316 316 315 314 314 313 314 308 306 308 307 303 303 299 300 300 296 288 285 285 291 297 298 299 299 300 305 302 298 293 296 298 299 301 299 293 294 293 290 290 288 288 285 287 288 287 286 285 287 286 286 286 285 285 287 283 286 284 284 284 284 285 284 284 284 280 285 282 283 283 279 280 282 282 284 284 287 286 286 287 288 287 287 287 289 289 289
316 316 316 315 315 314 315 306 305 307 304 302 301 300 300 301 302 297 289 281 279 285 293 291 300 294 305 299 299 296 296 293 296 298 302 299 300 294 292 290 290 289 285 287 288 285 285 286 286 288 287 286 286 286 285 287 283 284 286 285 283 285 285 284 284 283 281 281 284 281 282 277 281 284 285 282 282 286 287 285 286 287 289 289 289 290 289 288
317 316 315 315 315 314 306 299 308 306 299 300 304 303 298 301 299 295 288 278 276 286 286 293 294 294 301 298 299 295 288 288 300 299 299 301 298 299 293 288 287 288 287 288 286 285 286 286 285 285 286 286 284 284 286 287 285 284 284 283 285 285 285 284 284 284 281 281 285 280 279 279 280 284 283 282 283 286 287 285 288 290 290 291 292 292 291 290
316 316 315 315 315 313 303 306 305 301 299 299 299 304 300 299 295 292 284 273 270 289 286 287 293 299 301 297 296 291 290 295 293 296 298 299 298 293 290 288 290 289 287 287 283 286 286 286 285 285 284 283 286 284 285 287 285 283 283 284 285 285 282 282 282 280 280 282 282 279 284 281 278 282 283 282 286 285 285 285 288 290 290 291 293 293 293 292
316 315 315 315 315 313 308 306 305 301 302 299 300 303 301 297 292 289 279 272 284 283 296 289 301 299 295 296 292 291 293 293 289 293 296 296 297 294 289 286 287 287 286 287 285 286 288 287 288 289 288 285 284 284 283 287 287 285 283 283 282 282 281 281 280 282 280 278 274 280 281 278 278 279 281 281 285 285 283 285 287 288 289 291 293 292 292 293
316 315 315 315 313 309 307 305 303 301 300 300 301 301 298 294 290 284 277 271 288 281 287 290 292 290 292 291 289 290 292 290 292 293 294 293 294 291 291 289 290 289 288 287 285 286 288 290 289 287 287 285 285 284 284 284 285 285 283 287 284 281 280 278 278 277 277 274 275 278 278 279 276 281 281 285 286 282 283 286 287 288 288 290 290 290 291 291
315 315 314 315 307 309 308 301 304 303 302 300 298 298 294 289 283 277 271 279 287 285 286 287 286 293 291 289 288 287 289 288 293 292 291 293 291 290 290 291 289 285 284 283 285 284 287 288 288 286 285 284 286 286 285 283 283 285 283 280 285 282 279 278 272 275 272 269 270 276 277 278 276 277 284 283 283 282 288 289 290 290 289 289 289 289 289 289
315 315 315 312 311 313 305 302 306 305 302 299 298 295 291 281 283 278 275 288 282 283 283 283 284 289 291 292 289 288 289 289 290 290 291 287 287 288 289 286 287 280 281 281 281 284 286 287 286 288 287 287 286 287 286 286 282 284 283 286 280 273 270 274 269 275 273 269 278 277 278 278 279 281 283 284 285 284 283 286 286 289 290 289 290 289 289 288
314 314 315 313 312 309 308 306 306 305 302 299 297 291 285 280 274 282 279 283 280 284 283 286 284 288 290 288 287 287 288 289 289 289 288 288 287 286 287 287 286 285 281 282 283 282 283 283 286 289 289 288 289 286 283 284 283 283 286 281 277 271 269 267 263 262 267 272 275 279 278 278 280 282 286 289 289 286 285 285 285 286 287 287 289 289 287 287
314 314 311 312 312 311 308 307 306 305 302 298 292 288 282 275 277 290 282 280 283 283 283 282 285 286 289 288 287 290 286 287 289 288 290 287 287 285 287 287 286 285 283 281 284 283 278 280 285 288 286 288 288 288 290 287 285 285 283 286 282 272 269 268 265 273 272 271 272 274 275 274 277 283 286 285 286 285 284 284 284 283 284 285 286 285 284 285
314 313 312 313 312 311 308 307 306 306 301 294 289 285 279 278 280 280 282 281 280 282 283 287 288 286 285 283 287 289 288 286 287 288 287 287 284 285 286 288 286 283 285 284 282 281 283 280 284 286 286 288 289 289 287 287 286 283 280 283 281 280 277 270 266 265 264 269 270 273 275 277 282 285 285 285 284 286 285 285 285 286 285 284 284 286 286 285
312 309 312 309 309 310 309 308 305 305 299 291 287 281 280 282 277 281 282 284 284 284 284 285 283 284 283 283 286 288 290 288 287 287 286 286 287 287 288 287 288 288 287 285 283 280 280 281 284 284 286 287 288 287 288 288 285 285 283 279 281 281 279 271 268 270 271 269 271 269 277 280 281 285 286 282 285 286 285 285 287 288 285 285 289 289 288 291
306 309 304 308 309 311 310 308 306 302 297 289 285 280 283 282 283 284 290 286 285 289 286 283 282 283 282 282 285 287 287 289 286 285 284 286 286 286 286 287 288 288 289 288 283 284 283 281 284 285 287 288 287 286 286 284 287 284 279 283 283 282 281 278 274 266 263 269 270 271 276 277 275 280 282 284 285 286 283 284 284 286 285 289 290 291 290 291
306 305 306 306 310 312 311 308 305 300 293 288 283 288 281 284 285 285 286 285 286 286 284 284 283 284 283 283 282 286 287 287 285 285 284 286 284 290 288 288 288 291 290 287 287 285 285 280 284 284 286 288 286 288 289 288 286 284 281 285 285 279 278 276 272 268 267 265 265 268 272 273 277 281 280 283 284 286 285 284 285 288 289 290 292 292 291 291
306 304 299 305 310 312 310 307 303 296 289 285 284 285 286 284 286 284 285 288 287 285 285 282 282 284 284 283 284 286 288 284 286 284 284 283 283 286 290 290 287 288 289 287 286 284 286 280 281 285 286 287 287 287 284 285 286 285 286 284 284 280 276 274 276 271 273 267 264 268 269 277 278 280 280 283 283 287 283 283 285 288 289 291 292 292 293 293
302 298 295 305 309 311 310 306 298 293 286 283 285 285 285 286 287 286 285 287 285 284 284 284 283 283 283 284 286 285 286 286 286 285 285 285 286 287 288 291 289 287 288 288 286 288 284 282 276 284 286 286 284 285 285 287 283 281 282 281 285 280 282 280 277 275 275 266 265 265 268 272 278 280 283 286 283 282 284 286 286 287 288 290 293 293 293 292
299 296 295 307 309 310 308 301 293 289 286 282 284 284 285 287 287 288 287 286 286 288 284 284 285 284 282 283 284 286 285 284 286 285 284 285 286 283 288 291 290 288 287 288 288 287 283 282 280 282 282 283 283 285 285 286 287 286 286 283 286 281 278 276 277 276 267 272 268 263 274 273 280 280 285 286 285 282 281 285 288 286 288 290 292 292 292 293
297 290 293 306 308 308 302 293 291 288 284 282 284 285 286 295 288 287 287 288 287 287 288 285 284 283 282 286 286 286 285 284 284 285 285 285 288 287 287 289 289 291 291 287 288 287 286 282 283 278 282 285 285 286 284 284 285 285 285 284 286 283 281 274 274 276 271 273 270 267 269 274 281 281 281 283 282 281 281 283 286 287 288 289 290 291 291 291
294 291 301 304 307 304 298 290 292 287 284 283 288 286 288 287 286 287 287 288 288 287 287 286 286 285 283 284 284 285 288 284 286 286 286 287 286 288 287 288 291 291 292 286 288 285 290 282 279 279 280 281 284 285 284 283 286 287 285 282 283 285 284 282 275 276 278 271 272 269 268 276 280 280 281 281 280 280 280 281 287 288 288 288 290 289 290 290
292 293 296 303 306 303 295 286 286 287 284 287 286 287 288 288 286 286 287 287 287 288 287 286 286 288 285 283 285 286 287 282 285 286 285 286 288 288 286 289 292 290 291 289 290 291 285 283 284 275 274 278 280 285 284 284 285 282 282 282 285 281 279 277 276 273 272 276 277 276 272 275 281 281 282 282 282 284 284 283 285 290 289 290 289 288 288 287
292 294 295 298 303 300 290 289 288 288 285 285 286 286 287 287 288 288 287 288 288 286 287 287 287 287 285 284 286 285 287 287 281 286 287 283 287 287 289 288 292 291 291 291 295 293 286 282 283 278 276 274 273 272 277 281 284 282 278 281 284 285 280 280 278 275 275 273 277 271 276 279 279 282 285 284 283 285 286 285 285 285 291 290 288 287 288 287
286 282 289 292 295 294 293 294 290 287 286 285 284 284 286 286 288 288 288 289 288 289 289 289 288 288 286 286 285 284 286 285 284 283 285 284 285 286 286 286 287 290 292 294 292 292 281 282 285 285 283 281 283 284 284 285 282 281 282 283 283 284 283 284 279 276 279 277 276 279 282 283 283 284 284 286 284 286 288 287 289 290 287 287 286 285 286 287
289 284 285 282 290 289 288 290 288 288 286 289 283 286 285 285 287 289 291 289 289 289 289 290 289 288 287 286 285 284 285 285 282 283 284 284 283 285 286 287 288 289 293 291 292 288 282 283 284 284 285 286 284 282 283 287 285 285 283 282 283 284 283 283 282 282 282 277 275 280 282 281 283 283 283 283 284 284 288 290 290 288 289 288 288 285 288 287
283 286 289 291 286 283 284 284 288 288 289 290 287 288 285 285 286 285 288 289 290 291 289 289 290 290 289 287 286 282 284 283 284 283 281 281 285 286 287 288 288 290 290 289 290 288 285 284 285 283 284 284 279 282 283 285 285 285 285 283 282 283 282 282 284 286 282 282 281 285 282 282 285 285 287 286 287 289 289 290 291 289 287 285 286 287 287 286
288 285 286 290 286 285 287 288 288 288 289 291 288 288 285 286 286 286 286 287 288 289 289 284 287 288 288 289 287 284 285 281 281 282 280 280 283 284 284 287 289 288 289 288 287 285 287 282 284 284 284 284 281 281 283 285 283 283 284 284 285 283 283 285 286 287 284 284 286 284 282 284 287 286 289 289 289 291 289 286 285 287 287 286 287 287 287 287
284 284 283 287 286 285 287 287 288 287 285 290 286 287 287 287 286 286 287 286 284 287 289 287 285 287 288 289 287 285 286 287 286 284 282 285 281 282 285 284 285 286 287 286 287 286 287 282 287 283 281 282 282 282 282 283 283 282 282 284 284 285 285 285 286 287 286 285 286 283 280 282 285 286 288 288 287 288 286 287 289 289 286 287 287 287 287 287
289 289 290 286 284 284 286 286 286 286 285 286 286 287 289 288 287 289 288 289 287 287 288 289 287 288 288 288 287 288 289 288 287 289 288 289 287 287 288 286 289 287 286 286 285 287 286 281 282 281 279 278 279 281 281 281 281 280 280 282 283 283 282 284 284 287 284 284 285 282 282 284 288 287 288 287 285 287 289 289 289 288 287 287 287 286 286 287
289 290 290 288 282 287 285 286 286 286 283 287 287 287 288 289 290 291 288 291 291 291 292 291 290 291 287 289 288 290 291 290 290 290 290 288 289 288 288 287 289 289 286 287 285 286 284 283 281 279 279 278 278 279 279 280 279 276 279 282 285 285 287 287 287 286 286 288 284 282 284 290 287 289 289 287 287 288 287 288 288 287 287 287 287 286 286 286
Wind_Speed
23 20 20 20 20 18 18 18 19 17 17 16 15 15 14 14 13 12 11 11 12 9 10 10 9 9 7 7 5 3 5 3 2 3 5 8 4 4 5 5 9 9 9 5 4 5 1 0 3 2 1 4 3 2 1 3 1 1 3 6 2 2 2 6 6 10 1 1 2 4 6 4 2 0 0 1 3 2 1 1 2 1 5 2 2 2 4 2
22 20 20 21 20 19 18 19 18 17 16 16 16 16 15 15 14 12 11 12 12 10 10 10 9 8 7 5 4 4 5 1 3 5 14 1 4 6 6 8 9 8 9 5 7 5 6 2 2 1 2 2 2 0 0 0 1 4 2 3 5 5 3 8 6 6 2 1 1 3 1 2 3 5 1 1 2 2 1 2 2 3 4 1 2 1 3 6
21 21 20 20 20 20 18 18 17 16 17 16 16 16 15 13 12 11 11 11 12 11 10 9 7 6 6 5 5 5 2 1 1 11 12 9 5 6 7 8 8 7 5 4 5 8 8 10 5 4 3 5 5 2 2 0 2 1 5 3 3 9 2 6 5 3 4 3 3 4 1 1 0 2 0 2 1 1 4 4 2 3 7 7 1 3 7 8
21 22 21 20 19 19 20 18 17 17 16 16 16 16 14 13 13 12 12 11 11 10 9 6 6 5 4 4 4 3 2 1 5 3 2 8 12 9 7 8 8 5 5 4 6 5 3 6 5 4 2 5 2 1 2 1 1 2 4 5 3 5 3 2 7 2 5 1 2 4 1 1 1 3 2 3 2 4 7 8 8 10 11 8 5 7 9 10
21 20 21 20 20 19 18 17 18 16 17 17 16 15 10 12 12 12 11 10 10 9 8 7 5 5 4 4 5 3 3 3 6 1 2 3 10 11 8 7 7 4 3 8 8 5 5 5 3 3 3 1 2 2 0 1 0 4 1 2 3 3 1 1 5 2 3 2 6 4 7 5 2 1 2 7 5 6 7 5 10 9 3 9 10 10 10 11
19 19 19 19 20 19 17 18 16 17 17 17 15 14 11 11 10 10 10 10 9 9 8 8 6 5 4 5 5 2 4 5 1 1 4 1 7 9 8 7 8 7 9 5 4 4 6 1 3 2 1 2 4 6 1 0 2 3 1 1 3 2 1 1 0 2 4 3 5 6 3 4 4 1 1 5 9 5 4 1 3 5 4 5 6 10 12 12
19 19 19 18 18 18 17 17 17 18 17 17 15 13 11 10 11 11 10 9 9 9 9 9 8 6 6 8 2 3 4 5 1 2 4 3 5 7 8 7 9 8 6 5 4 5 2 4 3 2 5 4 1 2 1 1 2 5 4 3 2 3 2 2 0 3 3 8 5 3 1 2 3 4 1 3 10 5 1 1 4 4 3 7 11 12 17 18
18 19 19 17 17 16 18 17 18 17 17 17 14 11 11 12 11 10 10 9 9 9 9 10 9 7 8 4 4 1 2 6 1 3 2 6 6 6 8 5 6 5 5 8 7 4 5 7 6 2 3 8 4 5 2 5 3 2 2 2 3 2 0 1 2 4 2 2 1 2 4 0 4 2 1 7 10 6 6 3 2 6 6 5 8 12 13 14
17 18 18 17 16 16 16 17 18 17 17 15 13 13 13 12 10 9 8 8 8 8 9 10 9 7 5 2 4 4 7 2 2 2 2 7 5 4 3 3 2 6 4 3 1 7 8 4 2 5 4 1 2 6 2 6 3 2 1 5 4 2 1 1 3 4 2 2 1 4 0 2 3 1 4 10 6 4 7 2 3 6 6 7 9 12 13 15
18 18 18 16 16 16 14 14 17 17 15 15 15 14 14 12 10 9 7 8 7 7 8 9 10 9 4 3 3 5 2 2 1 1 5 7 6 4 7 4 6 6 6 1 3 4 4 5 8 5 8 3 2 2 1 0 2 4 5 4 7 0 0 3 3 2 1 2 0 2 1 0 1 2 7 1 2 7 0 1 0 4 8 8 7 9 10 13
19 19 19 18 18 16 14 14 15 16 15 16 15 14 13 11 9 8 7 7 6 7 8 8 9 6 3 1 7 7 1 4 1 2 6 7 8 5 2 5 5 5 5 2 4 6 3 8 4 5 1 3 4 0 1 1 4 5 10 5 7 3 4 1 3 3 0 1 1 3 2 1 2 2 7 3 4 4 3 1 1 3 5 5 6 7 7 7
19 19 18 18 18 18 17 15 14 15 16 16 15 14 12 10 9 8 7 7 7 7 8 8 8 3 2 3 4 4 3 2 2 3 4 5 4 2 3 5 4 6 7 6 5 3 3 6 7 2 3 3 2 1 0 1 3 4 4 4 2 4 1 7 2 2 1 0 1 1 1 1 1 6 5 6 5 4 1 2 2 4 5 5 5 5 6 8
19 18 18 18 18 17 17 17 16 15 15 16 14 13 12 11 10 8 8 7 7 8 8 10 5 1 2 3 6 4 1 2 3 7 4 3 5 4 4 0 2 4 4 6 4 4 4 8 5 7 1 4 5 2 3 6 1 3 7 5 3 2 1 2 1 2 1 0 2 0 3 6 8 12 8 4 7 5 2 3 4 4 5 6 5 6 7 6
19 18 18 18 17 16 17 17 16 16 15 14 12 12 12 11 9 8 7 7 8 8 9 9 4 2 2 3 2 2 2 3 3 5 4 0 5 1 3 4 3 2 2 5 3 3 5 2 7 7 2 5 2 1 5 2 4 7 1 5 2 4 3 2 1 2 4 1 2 1 3 7 6 5 1 3 3 2 4 6 5 4 5 5 6 6 8 9
18 18 18 17 17 16 16 17 16 16 15 14 12 12 11 10 9 7 7 6 7 9 11 6 2 3 3 2 2 2 5 3 3 1 2 4 4 3 1 3 6 5 3 6 4 2 4 6 8 3 1 1 3 4 3 3 4 3 6 1 1 5 3 5 1 1 4 1 4 4 2 8 9 10 6 4 3 2 5 6 7 7 6 5 6 7 8 10
19 18 18 18 17 16 16 15 14 15 16 14 12 10 9 8 7 7 6 5 9 10 4 4 1 2 4 1 1 4 1 3 3 1 0 2 2 2 3 5 1 2 3 4 3 4 5 6 7 3 3 3 5 7 4 4 2 5 1 1 2 1 3 3 0 1 1 1 3 2 6 3 3 2 1 2 5 3 1 5 6 7 8 7 7 7 8 8
19 19 18 19 18 17 16 14 13 13 13 13 13 11 9 8 6 7 6 6 4 3 1 3 3 1 4 1 3 1 2 1 1 1 1 1 1 6 6 3 2 4 5 4 4 4 6 5 2 2 4 5 2 6 7 2 1 2 3 3 3 4 2 2 2 1 2 2 4 2 2 6 4 7 7 5 1 2 5 6 7 7 7 8 7 7 7 8
19 18 19 18 18 18 16 15 14 14 14 14 12 10 7 8 10 10 7 5 2 3 1 1 2 2 5 1 3 4 0 3 2 4 3 1 4 4 4 3 1 5 4 4 4 3 2 2 2 5 2 1 2 4 8 9 10 8 3 3 0 0 2 2 2 1 0 2 4 1 3 11 12 11 10 6 2 1 7 7 7 9 8 8 7 7 8 8
19 19 19 18 19 17 17 15 17 16 15 16 13 12 12 10 3 1 4 1 3 3 2 5 6 5 4 7 1 3 2 2 4 3 2 3 2 3 4 4 5 7 2 3 1 3 2 5 4 4 6 3 7 7 8 5 6 9 8 6 4 5 4 3 5 3 0 1 2 3 7 8 9 11 11 6 1 3 7 5 8 9 9 9 8 8 8 8
18 19 19 20 18 18 17 17 17 18 18 13 9 7 3 4 2 2 1 1 0 2 4 9 4 2 2 3 5 0 0 1 4 4 1 1 3 3 5 2 3 5 5 5 1 2 1 6 7 9 10 9 6 4 5 4 7 6 5 5 3 4 1 3 3 2 0 1 4 4 5 6 12 12 12 12 1 5 7 10 10 9 9 9 9 9 9 9
19 19 20 19 18 18 18 19 18 17 18 6 9 5 6 9 12 3 2 3 1 1 2 1 3 3 1 1 0 4 7 2 2 1 1 2 0 7 1 2 2 3 1 1 5 1 3 6 9 6 6 8 7 9 9 9 5 7 6 5 1 2 2 1 0 2 2 1 2 2 3 10 13 12 12 9 3 11 11 10 11 12 10 9 9 10 10 9
20 21 21 19 19 19 18 18 17 17 10 3 2 2 0 3 0 2 7 4 1 1 3 0 1 3 1 2 1 1 3 4 3 1 1 1 3 7 2 4 4 8 0 2 3 2 3 10 6 6 4 8 6 5 4 7 7 4 6 4 3 4 3 2 1 2 3 2 5 2 3 10 11 11 11 8 10 8 5 6 7 5 8 8 9 9 8 6
21 21 20 19 19 19 18 18 16 13 6 4 4 1 4 2 1 1 4 4 3 0 1 1 5 2 2 2 0 1 1 3 5 2 2 0 3 2 6 4 5 4 1 3 9 5 4 5 6 4 7 10 4 4 9 8 7 7 6 6 5 2 4 2 3 0 3 1 1 1 4 11 8 7 12 11 7 7 5 7 9 6 10 12 12 6 6 8
22 22 22 19 19 18 18 17 15 8 3 5 1 5 2 0 1 2 3 3 3 0 1 1 1 3 3 4 3 3 2 1 4 7 2 3 6 2 5 4 6 4 8 6 7 10 6 1 0 9 5 10 7 2 8 6 3 1 4 4 4 3 3 2 3 1 0 1 2 0 3 8 4 5 5 1 3 4 5 6 6 7 8 9 9 9 8 12
22 21 21 20 18 18 17 16 7 4 4 3 5 5 4 1 2 1 6 2 3 1 1 1 2 0 2 2 1 1 1 2 0 0 1 5 4 4 3 1 4 6 5 3 4 2 2 1 3 6 4 4 7 3 4 8 2 1 4 6 5 5 7 0 2 4 3 1 3 2 3 3 4 7 9 9 8 8 2 5 7 7 5 4 7 8 6 7
21 21 21 19 19 18 19 9 6 6 9 7 5 3 3 3 0 1 7 3 2 2 1 4 1 3 2 0 2 3 4 1 1 1 1 2 2 4 2 1 1 8 3 6 7 3 2 1 1 7 7 5 6 6 5 5 6 3 4 5 4 8 8 7 4 3 1 1 2 2 3 4 6 6 5 4 8 11 7 3 7 6 6 5 6 6 7 8
22 21 21 21 19 21 11 4 7 10 6 6 6 5 2 1 1 1 4 5 3 4 6 1 1 1 2 1 3 3 6 4 1 2 1 3 1 1 6 4 3 4 3 2 2 3 2 1 4 4 5 6 5 4 4 9 8 5 1 6 8 9 8 6 6 2 1 1 1 4 3 1 5 8 5 5 6 9 9 8 7 6 6 6 6 6 6 6
24 22 21 22 22 16 1 6 12 9 5 2 1 6 2 3 2 1 5 4 2 2 3 2 1 2 2 0 3 2 1 2 4 3 0 2 0 3 2 7 7 8 3 4 8 1 4 4 3 5 1 4 8 4 5 6 7 2 2 4 6 7 5 7 6 5 1 1 5 2 2 0 4 8 4 4 3 6 8 7 6 6 6 5 5 6 6 5
24 23 23 21 22 13 7 6 7 10 4 1 3 6 4 4 2 6 4 3 0 3 3 5 4 2 2 1 3 1 1 3 1 1 3 1 4 2 2 4 5 7 4 2 7 1 2 5 6 6 8 7 2 2 0 6 6 1 5 8 8 8 7 5 5 5 1 2 5 3 3 3 7 7 6 3 1 8 7 3 4 3 4 4 5 6 6 5
23 23 22 22 15 7 3 3 7 3 1 3 4 4 4 3 3 3 3 6 4 2 1 1 3 6 3 9 1 4 3 2 2 0 2 3 2 6 3 3 5 5 2 5 6 3 1 3 4 3 3 2 5 3 1 3 4 10 4 9 7 8 5 4 7 3 3 1 6 3 4 1 4 5 6 3 3 4 3 2 2 3 3 3 3 3 6 6
21 23 21 21 10 6 6 3 6 3 3 4 5 5 4 6 5 4 6 7 4 1 2 1 2 3 10 13 7 2 4 1 1 3 3 1 2 3 3 4 4 6 4 4 3 4 1 1 1 0 3 4 3 5 6 3 6 5 3 5 8 5 6 5 5 5 2 5 3 2 2 1 6 4 3 7 5 4 3 4 1 1 4 4 4 5 6 6
22 22 22 14 7 8 7 4 4 5 4 5 5 5 5 4 2 10 5 1 4 6 6 6 2 5 14 10 9 7 7 2 0 4 9 5 7 8 7 9 7 5 1 5 4 1 2 3 1 3 3 7 4 10 5 1 4 5 7 8 8 1 4 2 2 2 5 5 1 3 1 1 8 9 3 6 7 5 8 6 4 1 5 6 5 5 5 5
23 20 21 10 9 5 2 1 5 6 5 4 4 3 5 6 8 11 2 6 2 4 6 3 6 8 7 7 6 4 1 8 3 2 4 0 6 3 1 2 5 6 9 5 5 2 3 1 1 1 2 4 5 11 2 1 1 4 10 8 7 2 2 3 3 1 5 5 4 1 1 3 4 9 11 14 11 6 6 8 6 3 6 8 8 6 8 7
19 18 12 7 7 6 2 5 5 8 7 3 5 6 5 4 10 5 5 3 1 2 5 3 4 4 12 11 8 9 5 1 6 3 3 6 6 6 5 2 4 2 6 2 7 7 6 3 6 7 3 2 1 3 11 8 10 6 1 7 8 7 6 4 3 4 5 5 3 4 1 6 4 3 1 7 7 6 5 5 3 4 6 8 9 6 6 5
19 13 10 7 5 3 3 4 5 8 6 6 5 8 12 13 4 10 9 2 1 2 3 0 9 7 4 5 1 2 3 3 2 5 1 7 8 7 10 9 4 5 3 10 4 2 6 3 2 3 2 0 7 1 3 6 6 0 3 4 5 6 5 2 3 3 1 0 1 1 5 4 4 1 6 4 5 8 5 5 2 4 4 1 5 4 3 3
15 8 8 6 8 3 4 4 4 6 7 7 8 8 14 9 5 3 6 5 3 6 4 6 3 5 1 2 2 4 4 4 5 5 3 5 3 10 7 5 9 9 10 9 5 4 4 4 2 6 3 1 1 0 0 1 8 4 4 3 3 2 11 7 2 1 1 4 5 1 7 6 8 8 4 1 1 4 2 2 1 4 0 1 1 1 0 0
8 10 9 7 7 4 6 5 5 6 3 4 10 13 8 1 3 5 4 8 7 13 8 11 5 7 8 7 6 8 4 5 3 4 6 3 4 5 4 5 4 6 5 9 1 3 10 3 2 3 1 1 0 0 2 6 1 9 2 7 2 2 6 5 3 2 4 3 7 2 7 5 2 6 4 1 3 6 4 2 2 3 1 4 2 3 3 3
9 8 4 8 5 6 6 7 8 5 3 3 11 13 2 5 1 3 1 6 5 2 7 8 2 6 7 7 6 9 3 7 7 2 5 7 4 7 9 4 5 11 8 2 4 3 7 3 0 1 0 3 1 0 5 2 3 3 3 4 6 2 2 2 5 1 1 2 4 3 3 5 6 7 2 3 7 7 6 1 2 4 3 4 4 3 2 2
8 8 8 5 1 6 7 7 6 7 4 5 11 11 2 1 1 4 5 5 4 5 7 4 5 4 4 9 5 4 9 9 7 7 8 4 5 4 15 8 5 4 6 6 3 1 1 5 1 1 2 1 2 2 9 2 3 2 3 4 1 3 2 4 6 3 5 4 2 6 3 6 7 7 5 4 9 10 4 3 5 6 6 6 6 6 6 6
9 5 2 1 1 4 8 7 6 5 1 14 14 5 1 3 1 1 0 4 4 4 4 6 2 7 3 4 8 9 6 5 12 8 4 3 8 1 7 3 5 5 7 1 2 3 4 1 4 1 2 2 3 4 10 12 10 2 2 3 1 1 2 5 2 3 4 5 6 2 4 4 7 8 7 8 6 5 8 9 6 5 5 5 7 9 6 5
1 2 3 2 2 4 8 6 6 10 10 3 3 3 0 4 2 1 1 1 2 4 3 5 7 6 6 5 2 2 4 4 5 6 4 2 9 5 7 10 9 9 4 2 3 2 3 2 7 2 2 5 5 1 1 4 5 9 11 12 12 10 5 5 6 3 2 3 4 5 9 6 10 3 9 8 7 2 6 8 9 5 6 7 6 5 5 5
3 6 3 2 1 6 9 11 6 2 1 3 6 3 3 1 3 3 2 0 3 2 1 5 2 4 4 6 6 8 7 5 4 5 4 7 6 5 2 4 6 14 13 11 11 2 5 3 9 5 6 5 1 1 2 1 0 1 2 6 5 2 6 4 6 6 3 0 5 3 0 9 7 3 4 6 4 5 3 5 6 7 7 7 6 4 1 1
3 4 2 2 2 6 8 7 1 2 3 2 1 3 2 2 4 3 4 1 1 1 1 1 5 5 2 3 1 5 11 5 10 11 6 8 4 5 4 7 10 9 7 1 5 3 5 5 5 2 1 2 2 1 1 1 1 1 3 1 5 9 8 8 3 6 8 2 2 1 1 8 5 1 4 6 4 3 4 4 7 8 6 6 5 4 1 1
2 3 3 3 2 1 6 13 13 13 3 0 2 2 2 2 3 3 3 2 3 2 3 3 1 1 3 2 4 8 7 4 4 6 4 1 4 2 3 10 15 8 11 10 13 9 5 4 9 3 3 2 3 1 1 2 1 4 5 5 4 3 6 3 5 1 3 10 9 8 7 6 4 3 2 1 3 2 3 4 6 10 7 6 6 4 1 1
1 2 3 1 3 1 6 1 7 11 4 6 5 5 3 1 1 2 4 5 1 2 3 2 2 4 1 2 4 2 7 8 3 6 2 1 2 1 4 7 9 9 2 3 3 7 3 4 9 9 11 9 6 5 8 11 13 4 1 4 7 10 9 6 5 3 5 3 7 5 7 7 6 3 2 2 0 1 1 2 1 3 7 8 4 3 1 1
1 4 0 3 4 3 3 1 1 4 7 6 5 3 3 3 0 1 4 1 2 1 1 3 1 3 3 4 4 4 8 1 2 3 7 3 1 1 2 5 6 2 2 2 5 9 3 1 6 10 13 15 15 12 1 9 7 6 8 10 7 5 5 4 6 5 10 4 8 8 7 1 4 4 4 4 3 7 6 3 7 9 7 6 6 4 1 1
1 2 2 3 3 4 1 3 1 2 7 6 7 3 6 4 2 0 1 1 3 4 1 0 3 6 2 6 6 6 6 6 2 3 5 6 0 1 3 3 3 3 2 2 7 6 3 3 7 8 11 12 7 3 5 10 10 9 8 8 9 11 9 9 10 12 6 11 7 9 9 7 11 7 6 6 6 4 6 10 8 6 7 8 6 2 4 2
2 1 2 1 2 5 5 4 2 3 2 7 3 4 6 6 3 5 2 1 0 0 3 1 1 3 11 13 6 4 4 4 4 4 1 1 4 1 2 2 3 2 2 2 0 4 6 8 7 6 10 7 2 5 7 6 9 10 13 11 12 13 12 14 16 14 11 11 16 16 9 10 13 8 11 11 11 11 13 14 12 7 3 3 4 5 4 4
1 1 1 4 1 2 2 3 8 3 3 7 1 5 8 10 10 4 4 2 1 2 1 4 5 5 4 3 6 5 8 6 5 2 4 4 4 4 2 2 1 2 2 2 3 2 4 5 5 6 10 8 3 4 3 8 3 4 9 14 15 15 16 18 17 16 13 14 17 5 12 18 14 11 13 12 11 10 5 3 4 5 8 7 4 5 7 7
1 1 1 3 4 3 2 5 7 7 4 5 6 6 7 11 11 1 0 5 4 5 0 2 2 5 5 6 4 6 8 8 8 10 5 6 0 1 5 5 5 1 0 4 4 2 5 4 6 4 5 7 5 1 1 4 6 6 4 8 12 15 17 19 18 18 13 14 12 2 3 12 7 7 7 4 4 1 1 5 9 9 5 7 8 7 8 7
1 1 1 4 2 0 2 3 4 5 4 3 4 3 4 8 12 7 2 1 4 7 5 8 5 5 1 3 2 0 2 3 3 9 13 13 13 9 8 5 8 8 5 3 1 2 4 3 2 4 6 5 1 7 4 3 2 1 3 7 11 13 13 14 15 14 11 12 13 4 7 15 7 10 6 4 4 6 10 9 8 6 7 8 9 8 8 9
1 1 1 1 2 4 4 2 2 3 4 3 4 2 3 4 3 7 2 2 1 3 7 9 9 8 2 5 4 4 3 4 4 4 8 3 4 5 3 2 7 11 10 9 1 7 5 6 5 5 7 6 2 1 5 5 3 3 7 12 20 19 19 14 9 1 8 14 12 11 17 18 4 11 11 7 7 8 6 6 6 6 6 8 9 9 9 8
Wind_Direction
176 181 182 183 181 177 178 180 180 178 178 180 186 185 184 180 177 177 179 193 187 175 178 185 179 179 179 176 174 150 106 119 162 196 203 235 199 187 163 99 135 144 122 98 91 112 50 22 149 339 47 59 320 86 254 53 43 63 80 114 87 203 136 196 169 192 193 105 199 182 218 128 201 111 171 106 38 47 329 280 304 304 253 242 268 285 291 264
175 181 182 183 181 179 177 179 176 175 177 185 186 186 182 179 173 173 177 186 182 181 182 178 176 171 168 156 145 132 116 121 236 239 224 135 189 160 144 130 137 146 111 105 152 155 136 210 222 58 84 67 335 49 46 313 73 92 134 91 196 191 237 158 196 186 121 292 183 196 198 176 201 141 239 118 288 5 190 281 2 317 292 274 292 333 212 167
176 179 180 181 180 177 175 174 169 171 179 185 185 185 179 173 168 169 176 176 177 182 178 174 168 160 141 142 129 123 131 84 316 253 250 198 167 160 149 141 144 168 139 151 189 155 167 192 177 111 10 101 359 164 69 181 68 233 116 142 241 205 213 211 167 182 196 137 114 143 191 141 181 152 250 193 175 35 220 219 296 266 247 220 241 141 170 170
175 177 179 177 178 173 174 166 167 174 177 181 185 180 172 170 168 168 176 175 174 172 172 161 150 138 125 114 123 116 120 42 259 246 278 198 161 159 152 146 143 130 85 63 147 141 97 80 86 103 65 73 309 5 118 280 153 217 81 155 220 186 133 220 192 212 198 149 146 128 102 146 252 208 157 171 127 256 262 233 193 212 225 204 179 168 168 171
174 176 176 173 172 172 167 163 171 175 179 177 174 173 151 157 164 171 172 174 170 166 157 146 144 137 123 126 112 138 113 41 265 225 300 206 153 151 147 139 127 112 105 136 88 71 115 136 120 44 91 160 343 32 23 325 152 106 145 182 152 144 84 188 192 175 136 120 113 138 127 208 89 72 129 153 180 230 210 246 217 231 234 163 171 178 172 174
170 173 174 168 168 169 165 168 172 178 176 174 172 155 141 150 157 170 171 166 164 157 144 144 146 138 134 116 96 106 131 192 283 337 317 164 150 141 139 135 128 117 118 103 117 140 126 60 119 162 55 90 184 150 230 198 320 135 318 113 169 197 117 322 158 193 137 124 140 148 202 99 145 185 252 183 208 228 223 198 230 244 207 174 142 157 175 179
166 168 173 165 164 165 169 169 172 175 172 171 166 164 153 159 170 169 164 166 164 154 144 144 141 137 134 99 111 106 173 271 20 269 318 124 137 131 130 118 115 118 122 103 121 143 157 120 109 179 98 67 299 130 191 178 13 104 173 149 182 172 71 249 248 141 127 132 185 202 23 132 141 202 127 220 241 223 217 251 259 264 141 146 151 178 179 186
162 163 163 162 162 163 172 169 171 170 164 164 162 159 163 170 160 164 161 164 161 150 142 139 137 135 133 126 120 165 154 252 228 276 302 98 82 101 103 76 109 116 130 159 157 147 142 144 168 137 76 148 205 130 203 87 9 103 120 184 135 107 241 20 88 106 151 145 9 120 138 252 177 180 81 250 251 262 280 356 95 112 135 162 169 179 192 195
161 157 158 160 160 160 169 169 169 162 165 167 163 167 171 157 156 156 160 161 154 147 140 130 134 136 148 90 117 122 236 241 181 297 91 100 109 108 139 111 118 135 140 105 151 169 140 231 123 193 213 139 154 96 231 132 298 171 138 121 131 91 346 88 70 65 66 108 71 98 12 319 244 226 244 243 266 283 292 344 119 125 144 183 194 188 187 195
160 158 158 158 155 156 164 162 169 165 161 166 168 169 164 155 156 157 162 159 151 141 132 128 127 134 111 98 87 183 252 122 336 41 126 120 111 108 37 120 122 122 123 177 93 133 178 201 168 187 126 71 129 113 207 91 214 130 96 92 105 27 107 7 139 21 339 108 11 150 264 180 306 69 278 309 245 326 136 126 24 163 187 199 195 201 206 201
160 160 159 156 151 154 156 160 166 164 162 167 167 164 158 152 156 158 159 159 151 152 128 124 129 138 116 107 146 206 176 101 206 126 130 127 111 136 184 147 150 137 125 171 191 192 190 154 156 104 6 212 109 4 97 178 124 94 133 105 44 0 78 41 85 29 58 62 75 146 168 323 316 106 231 234 348 314 158 199 246 239 238 220 217 211 214 224
160 159 157 155 152 155 157 168 163 163 168 162 163 158 150 156 151 158 155 154 160 147 128 120 137 133 89 102 148 200 187 220 133 132 124 128 115 244 238 177 150 152 148 171 231 223 162 159 131 95 179 136 87 120 64 141 68 159 134 97 320 15 63 8 92 337 348 144 70 165 93 284 159 223 250 258 314 14 114 247 264 252 264 276 267 247 225 224
159 156 154 152 153 154 158 162 155 164 165 160 158 156 153 157 158 151 158 145 157 147 124 117 99 90 109 112 236 215 188 175 127 112 71 78 111 66 77 53 127 143 161 149 205 203 160 148 136 85 12 93 152 138 163 77 12 113 39 119 50 19 1 346 313 349 107 216 27 281 263 264 260 253 276 303 339 336 331 289 272 262 264 274 269 252 254 248
157 157 153 152 151 151 152 155 158 163 162 154 157 158 156 159 153 157 150 158 157 139 121 119 106 113 151 230 245 233 168 129 125 85 99 170 87 48 42 27 52 57 20 106 91 119 114 105 93 116 125 101 140 196 75 358 14 133 202 53 134 119 249 316 22 310 140 326 16 115 215 276 272 281 307 335 338 259 277 279 291 288 284 261 255 252 247 245
157 154 151 149 148 147 150 154 162 163 160 158 156 155 154 155 156 151 151 141 162 143 118 87 69 111 116 262 311 295 144 147 107 165 175 131 116 71 53 43 49 41 98 115 127 86 118 111 92 55 89 284 110 83 41 43 12 26 90 263 334 157 263 301 72 12 168 4 40 91 287 248 264 272 278 308 9 148 241 282 293 293 279 262 251 249 251 248
156 152 149 147 143 144 145 150 157 162 162 155 154 151 151 151 150 153 146 144 139 124 116 112 139 131 105 272 190 107 94 148 198 157 310 139 140 139 157 123 140 22 64 45 69 101 47 80 75 175 120 33 68 104 79 71 342 352 78 224 168 116 236 348 289 38 334 127 10 155 223 332 317 256 289 312 62 66 20 292 289 291 280 273 246 236 246 266
155 152 148 143 141 142 143 147 148 156 150 153 151 139 132 140 164 154 126 97 115 86 116 167 131 185 150 286 106 156 206 228 309 69 79 35 145 148 107 64 48 68 55 71 33 62 0 65 283 40 23 129 169 111 98 13 330 238 20 137 211 157 204 244 307 337 16 112 201 18 205 229 237 278 291 293 268 323 310 283 280 273 272 267 272 257 250 243
153 150 145 141 137 139 142 141 147 158 157 154 149 140 140 149 140 112 84 62 51 90 255 127 138 104 259 107 194 212 107 132 138 144 68 327 117 97 96 103 35 91 82 81 355 86 333 68 28 175 28 41 145 110 142 198 179 191 153 88 125 68 201 226 142 216 17 28 176 334 263 271 272 283 282 271 220 236 262 264 277 281 277 276 264 268 258 253
150 148 144 139 138 139 142 143 161 158 156 154 147 145 136 129 92 63 95 48 107 70 155 194 147 165 197 204 125 75 115 162 111 79 152 115 27 100 67 83 98 118 92 83 254 116 351 74 42 86 164 153 197 178 169 200 147 165 165 170 144 149 212 209 242 278 167 161 232 206 224 261 285 284 287 290 166 203 263 285 281 270 266 268 261 258 255 252
143 144 143 141 139 142 139 158 162 160 159 154 153 133 84 85 65 109 353 13 68 171 274 169 142 145 82 17 132 239 339 73 116 338 105 302 122 80 39 79 34 56 114 165 151 108 115 139 177 190 193 186 182 158 157 169 141 119 78 94 159 162 285 279 282 278 359 102 242 234 268 274 274 269 273 279 302 284 270 268 261 260 262 259 259 251 251 246
142 143 144 141 142 142 150 162 162 163 165 156 167 150 160 173 126 174 157 255 192 247 348 332 146 122 99 133 323 153 121 5 59 139 185 120 97 128 224 56 73 113 353 190 139 225 72 149 220 204 190 182 160 130 110 76 60 131 130 136 182 184 164 212 130 352 327 146 294 43 324 272 262 273 269 275 315 270 253 251 254 256 253 259 256 261 250 252
143 146 148 143 144 147 156 161 161 166 138 107 152 171 251 208 130 186 125 169 228 222 18 255 218 57 10 156 279 134 56 90 73 60 336 144 161 152 254 111 145 166 167 131 61 108 158 199 215 204 145 96 94 97 79 121 111 55 136 144 110 255 237 300 316 323 333 98 264 28 325 274 269 262 268 252 249 249 236 219 240 245 269 264 259 254 268 285
146 149 147 145 147 153 159 158 160 143 125 158 204 200 224 223 354 235 105 86 74 277 90 80 133 106 28 328 257 38 84 132 169 244 216 55 127 164 137 117 127 135 109 192 163 139 189 276 233 156 145 114 56 84 100 76 69 112 96 103 193 239 139 239 267 360 358 93 312 242 308 281 280 278 262 264 237 265 270 264 265 240 252 255 258 275 291 284
148 149 148 146 147 156 155 158 145 118 175 200 250 214 231 348 57 46 69 146 159 285 91 233 145 144 162 145 211 111 111 208 120 188 298 124 146 187 110 141 127 127 186 190 163 170 187 260 341 142 155 136 129 123 124 118 125 354 128 132 134 156 229 149 187 142 309 20 61 76 283 297 322 327 324 330 333 307 289 328 286 259 239 263 291 290 253 262
148 148 147 148 149 151 154 138 136 168 114 205 275 250 254 265 73 87 95 41 22 11 193 39 134 231 171 70 40 140 225 87 3 203 246 131 141 101 171 173 114 194 168 163 108 112 273 329 152 114 117 95 116 136 187 130 100 64 229 171 188 172 136 204 78 117 24 325 4 42 323 311 303 286 244 285 343 322 302 338 297 296 296 296 287 280 289 267
148 149 147 148 150 149 144 137 169 127 145 200 216 251 241 220 196 18 95 65 192 244 43 192 172 197 140 174 42 144 123 146 277 230 84 226 172 134 107 78 98 199 149 137 161 169 198 353 126 163 148 137 142 167 210 147 163 122 249 161 139 141 126 125 124 78 76 150 355 7 173 266 325 314 283 325 322 295 315 316 292 308 318 320 292 290 287 281
148 149 149 148 152 148 150 183 131 117 135 258 238 227 244 180 123 123 63 6 349 197 153 292 77 182 70 192 135 128 132 239 25 41 53 334 135 326 139 182 38 27 153 162 62 243 92 77 78 75 105 128 127 188 230 150 129 213 245 131 112 115 134 161 122 119 165 255 268 51 97 213 305 287 276 312 319 303 315 322 324 336 340 332 323 311 301 286
150 149 149 155 150 163 73 121 142 168 200 226 193 173 139 151 116 54 77 104 253 140 129 244 234 346 106 329 67 144 203 160 103 221 65 290 99 15 96 198 165 164 178 112 190 290 124 160 160 144 98 132 185 211 184 149 133 223 218 152 131 139 138 117 98 105 116 27 277 336 347 295 256 267 309 359 326 303 302 306 314 329 332 329 335 341 334 318
150 149 152 154 154 144 123 139 164 180 209 180 130 118 108 111 97 114 117 136 243 85 278 101 271 74 34 86 65 57 82 17 129 251 313 19 25 167 113 196 123 116 30 169 176 214 323 167 203 158 150 194 237 327 190 152 107 252 131 92 95 88 75 97 102 84 358 77 269 209 11 204 279 273 323 338 276 269 261 270 288 284 292 313 344 348 349 1
151 150 154 152 138 110 100 92 190 222 90 131 104 111 104 116 125 126 97 231 125 195 99 204 143 193 145 140 107 360 113 341 110 352 31 143 339 40 19 147 118 102 91 30 79 185 234 326 193 92 185 166 128 37 90 29 116 131 132 86 50 42 39 39 62 88 69 330 250 264 307 163 302 268 229 142 210 206 214 296 285 294 310 318 321 340 356 1
146 155 155 151 152 145 130 171 222 207 142 119 127 127 115 45 149 111 186 222 62 38 27 156 172 100 146 151 161 313 85 28 112 147 118 329 22 51 149 57 44 55 60 21 45 330 23 356 78 296 66 120 103 78 26 77 99 124 104 129 83 6 12 30 347 33 120 263 261 277 287 323 181 291 303 237 287 235 173 166 165 312 314 309 319 330 344 351
152 157 156 155 145 145 161 218 184 152 138 135 122 131 135 107 356 187 204 54 149 196 166 184 257 158 177 171 140 154 138 44 104 153 156 181 157 148 203 156 167 93 218 179 196 338 51 112 218 12 222 123 132 89 357 1 351 83 95 95 114 220 34 280 9 242 206 199 238 333 190 5 238 231 244 288 266 256 225 207 201 239 304 320 318 338 345 322
154 159 157 147 140 168 228 161 129 131 111 122 125 97 109 131 191 209 110 186 251 134 225 101 172 175 163 129 166 144 84 152 202 173 106 60 139 237 331 160 187 141 186 200 112 98 272 265 47 290 57 227 150 121 135 135 291 116 140 146 115 122 97 217 272 282 313 289 271 288 288 261 253 281 241 240 246 218 220 225 234 237 278 298 300 333 336 322
155 151 151 153 156 182 137 138 140 121 115 105 126 83 60 138 222 114 146 210 156 358 72 112 78 62 154 174 184 166 127 318 155 177 140 166 145 181 239 281 146 86 81 151 153 187 145 282 243 152 207 157 180 161 174 152 156 205 34 146 173 139 156 203 192 191 212 198 282 275 89 233 126 243 212 219 253 272 249 250 232 236 249 266 293 308 294 305
154 152 144 141 166 185 132 128 142 132 112 122 115 166 169 206 185 160 185 135 281 32 46 251 126 131 187 14 356 232 120 134 182 114 161 146 188 188 185 201 230 116 142 129 255 96 211 208 283 320 264 144 165 245 113 100 51 9 165 76 96 214 134 128 204 143 153 146 21 249 217 190 180 267 271 235 285 277 279 284 261 246 237 284 303 326 330 315
146 159 154 158 180 182 128 139 128 119 132 136 148 177 201 194 196 194 190 144 137 123 111 53 57 121 125 50 334 204 328 110 204 129 207 202 215 193 196 191 184 194 159 174 172 164 29 245 350 308 47 71 168 176 355 131 171 220 104 192 206 107 98 102 58 2 91 43 253 163 315 287 296 312 275 326 341 270 335 329 329 274 59 25 38 6 304 287
150 146 180 163 186 143 145 133 130 109 87 167 166 197 197 23 185 142 140 148 178 131 136 134 238 146 175 200 174 194 207 83 174 129 206 152 267 198 200 235 179 196 238 125 260 218 159 205 358 58 146 345 203 142 98 34 145 103 176 218 170 138 126 127 189 349 62 178 264 101 221 286 33 263 336 347 185 258 277 287 268 264 38 88 101 123 178 192
153 161 137 168 173 143 134 139 123 105 110 166 203 200 18 128 245 117 161 99 119 118 135 162 223 104 201 152 211 181 203 164 185 167 184 181 237 189 185 188 197 189 194 286 157 229 119 77 344 339 126 289 8 350 49 27 42 140 200 182 114 202 217 308 93 214 185 260 267 301 286 272 196 242 351 237 205 234 236 254 201 184 117 133 138 156 219 234
148 164 160 166 36 156 137 136 124 116 126 195 214 201 240 121 138 151 211 139 123 123 150 223 132 237 143 186 169 163 161 183 166 192 151 234 204 204 185 164 206 201 164 149 112 148 61 140 278 342 136 265 360 114 188 197 342 23 87 85 316 101 153 129 198 175 124 239 67 290 52 240 204 220 197 247 210 214 147 162 195 188 163 158 154 161 165 161
159 155 141 138 132 128 136 136 116 128 180 202 205 201 163 111 185 225 302 155 173 126 211 161 240 134 172 193 154 166 211 172 167 196 208 198 199 297 194 231 163 184 156 102 124 157 160 109 161 264 305 88 175 201 210 168 151 64 114 171 116 39 230 102 27 125 184 173 185 208 315 274 255 215 199 220 217 205 169 176 206 185 181 180 166 158 161 153
264 104 109 78 132 141 132 129 140 186 200 314 33 123 92 170 139 43 98 142 103 339 148 154 160 161 174 112 192 150 147 144 179 186 192 199 193 211 213 189 149 160 127 55 85 189 89 179 162 141 69 218 241 273 234 175 193 172 166 185 173 131 134 160 245 36 97 123 221 137 249 269 269 179 202 218 242 191 214 179 177 174 176 174 177 174 152 132
168 135 154 64 53 157 154 152 203 147 108 159 188 156 157 106 93 149 91 312 80 137 8 101 7 127 148 172 158 165 144 172 175 183 227 199 222 215 292 148 164 148 153 181 183 218 140 123 106 166 207 187 226 337 269 266 320 184 165 223 165 164 95 110 195 231 62 360 98 159 326 270 243 207 222 223 225 231 223 171 185 175 178 181 191 178 193 166
32 88 14 22 15 157 158 180 122 149 193 237 318 33 35 68 119 196 145 263 136 95 87 112 187 126 273 127 144 159 164 186 171 196 190 208 239 200 213 154 127 163 126 80 57 207 90 98 81 339 324 312 329 313 51 228 117 9 287 110 140 199 187 181 167 172 150 151 109 360 241 256 290 234 235 258 255 256 259 193 185 169 179 190 188 205 204 108
15 84 53 13 82 37 178 182 186 202 159 360 80 102 2 151 129 123 195 192 160 148 163 160 21 278 158 140 135 171 187 156 231 197 255 184 212 60 169 159 158 171 165 194 174 197 159 235 130 127 34 350 343 345 357 350 36 215 199 195 200 83 77 131 105 57 103 211 170 133 228 268 273 314 286 270 309 280 262 219 197 164 181 185 197 211 229 266
89 52 48 44 21 75 197 300 194 181 146 160 144 139 133 55 244 171 151 180 144 154 119 210 187 149 100 178 140 117 191 180 160 226 157 189 206 45 5 168 193 178 169 305 36 157 168 172 145 153 170 169 194 195 219 217 210 191 239 167 186 163 143 130 178 177 190 268 148 160 238 254 279 321 341 330 273 249 260 229 259 234 172 175 212 244 261 36
6 115 46 29 6 24 34 27 60 135 151 149 144 204 123 121 4 330 122 90 164 112 50 125 354 90 104 129 140 163 196 285 133 182 183 215 212 345 279 327 204 207 304 113 152 145 172 153 191 187 191 201 203 203 205 76 65 177 214 173 183 179 170 119 100 113 209 199 176 229 223 150 210 242 264 248 196 187 181 201 196 197 219 202 193 195 285 334
37 91 143 152 45 1 11 19 54 112 174 169 175 157 176 155 135 46 214 146 218 155 89 60 172 151 226 150 171 186 198 182 356 101 197 164 241 236 320 136 100 1 2 94 163 98 85 184 221 204 219 218 207 153 197 153 172 198 142 182 176 166 174 162 174 214 153 90 258 237 212 199 230 221 229 234 234 232 217 193 191 201 201 192 210 158 116 86
85 327 54 290 112 183 164 243 188 121 37 160 201 133 172 141 165 165 27 326 38 308 134 322 239 239 169 174 145 158 164 171 149 203 51 352 109 339 68 359 148 314 37 137 256 144 149 199 220 182 235 228 130 171 164 158 181 178 182 165 167 177 168 182 210 216 127 197 224 233 171 213 232 186 216 211 196 196 202 206 200 179 131 190 166 131 133 151
1 36 31 342 90 6 29 107 141 148 114 179 94 160 171 175 186 183 152 107 34 240 172 187 209 204 181 174 158 167 160 150 238 223 165 162 173 129 101 35 277 18 140 122 158 181 131 229 195 179 220 223 225 156 204 159 165 137 177 178 176 167 186 196 213 213 180 216 226 223 159 217 225 184 204 212 208 203 200 87 92 157 186 183 191 162 156 163
245 110 332 13 48 53 87 120 147 156 149 196 161 217 178 185 184 144 327 139 169 242 5 196 193 156 170 168 165 165 201 193 178 182 205 132 91 150 194 186 158 21 103 165 167 263 157 252 139 152 201 242 218 183 144 187 155 187 201 183 176 182 192 200 210 221 211 237 244 158 209 265 244 175 214 234 208 111 72 168 197 197 150 176 189 176 165 167
95 93 132 122 89 250 87 123 129 158 144 179 181 212 170 193 191 162 165 171 157 172 177 192 157 110 82 108 99 157 212 159 168 190 178 168 181 203 156 236 155 156 176 148 158 171 161 240 50 117 185 264 248 183 183 82 59 120 147 174 190 187 200 213 211 214 191 210 228 218 264 258 251 153 206 187 154 174 205 208 202 198 194 180 191 180 168 171
63 52 93 98 90 191 155 173 95 103 214 195 151 175 166 198 136 144 116 261 169 174 169 154 174 125 158 143 180 200 185 131 131 117 119 53 85 85 64 136 154 159 169 177 167 149 177 143 153 161 185 222 326 182 123 111 69 298 234 204 198 201 203 210 222 202 198 198 206 199 228 239 172 175 188 204 176 209 219 213 210 208 201 189 191 181 173 171